Siemreap, Cambodia

2:59 PM +07 on April 25, 2018 (GMT +0700)
Siem Reap

Weather History for VDSR - October, 2012

Change the Weather History Date:

Friday, October 12, 2012

  Actual Average Record
Temperature  
Mean Temperature 84 °F -  
Max Temperature 89 °F - - ()
Min Temperature 78 °F - - ()
Cooling Degree Days 18    
Growing Degree Days 34 (Base 50)    
Moisture  
Dew Point 75 °F    
Average Humidity 73    
Maximum Humidity 89    
Minimum Humidity 59    
Precipitation  
Precipitation 0.00 in - - ()
Sea Level Pressure  
Sea Level Pressure 29.79 in    
Wind  
Wind Speed 3 mph ()    
Max Wind Speed 8 mph    
Max Gust Speed -    
Visibility 5.2 miles    
Events Rain    
T = Trace of Precipitation, MM = Missing Value Source: Averaged Metar Reports

Daily Weather History Graph

Daily Weather History Graph

Search for Another Location

Airport or City:

Astronomy

Oct. 12, 2012 Rise Set
Actual Time 5:54 AM +07 5:47 PM +07
Civil Twilight 5:33 AM +07 6:08 PM +07
Nautical Twilight 5:08 AM +07 6:33 PM +07
Astronomical Twilight 4:43 AM +07 6:58 PM +07
Moon 2:36 AM +07 (10/12) 3:10 PM +07 (10/12)
Length of Visible Light 12h 35m
Length of Day
11h 52m
Waning Crescent, 14% of the Moon is Illuminated
Oct 12
Waning Crescent
Oct 15
New
Oct 22
First Quarter
Oct 30
Full
Nov 7
Last Quarter

Hourly Weather History & Observations

Time (+07) Temp. Heat Index Dew Point Humidity Pressure Visibility Wind Dir Wind Speed Gust Speed Precip Events Conditions
7:00 AM 78.8 °F - 75.2 °F 89% 29.83 in 4.3 mi East 4.6 mph - N/A   Unknown
7:30 AM 80.6 °F 86.2 °F 75.2 °F 84% 29.86 in 4.3 mi East 2.3 mph - N/A   Unknown
8:00 AM 82.4 °F 89.5 °F 75.2 °F 79% 29.86 in 5.6 mi Variable 1.2 mph - N/A   Unknown
8:30 AM 84.2 °F 92.3 °F 75.2 °F 74% 29.86 in 5.6 mi Variable 1.2 mph - N/A   Unknown
9:30 AM 87.8 °F 97.6 °F 75.2 °F 66% 29.89 in 5.6 mi Calm Calm - N/A   Unknown
10:00 AM 87.8 °F 97.6 °F 75.2 °F 66% 29.86 in 5.6 mi Variable 2.3 mph - N/A   Unknown
11:00 AM 87.8 °F 97.6 °F 75.2 °F 66% 29.86 in 6.2 mi Variable 3.5 mph - N/A   Partly Cloudy
11:30 AM 87.8 °F 97.6 °F 75.2 °F 66% 29.83 in 6.2 mi NNW 4.6 mph - N/A   Partly Cloudy
12:00 PM 89.6 °F 98.2 °F 73.4 °F 59% 29.80 in 6.2 mi Variable 3.5 mph - N/A   Scattered Clouds
12:30 PM 89.6 °F 98.2 °F 73.4 °F 59% 29.80 in 6.2 mi Variable 2.3 mph - N/A   Scattered Clouds
1:00 PM 89.6 °F 98.2 °F 73.4 °F 59% 29.77 in 6.2 mi Calm Calm - N/A   Scattered Clouds
2:00 PM 87.8 °F 97.6 °F 75.2 °F 66% 29.74 in 6.2 mi West 4.6 mph - N/A   Scattered Clouds
2:30 PM 87.8 °F 97.6 °F 75.2 °F 66% 29.74 in 6.2 mi Variable 3.5 mph - N/A   Scattered Clouds
3:00 PM 86.0 °F 95.1 °F 75.2 °F 70% 29.74 in 6.2 mi South 4.6 mph - N/A   Scattered Clouds
3:30 PM 86.0 °F 95.1 °F 75.2 °F 70% 29.74 in 6.2 mi SSW 4.6 mph - N/A   Scattered Clouds
4:00 PM 87.8 °F 95.6 °F 73.4 °F 62% 29.74 in 6.2 mi SW 4.6 mph - N/A   Scattered Clouds
4:30 PM 89.6 °F 98.2 °F 73.4 °F 59% 29.71 in 5.6 mi Variable 2.3 mph - N/A Rain Light Rain
5:30 PM 86.0 °F 95.1 °F 75.2 °F 70% 29.74 in 5.6 mi South 2.3 mph - N/A   Partly Cloudy
6:00 PM 86.0 °F 95.1 °F 75.2 °F 70% 29.74 in 4.3 mi Calm Calm - N/A   Haze
6:30 PM 84.2 °F 90.9 °F 73.4 °F 70% 29.74 in 4.3 mi Calm Calm - N/A   Haze
7:00 PM 84.2 °F 94.1 °F 77.0 °F 79% 29.74 in 4.3 mi Calm Calm - N/A   Haze
7:30 PM 84.2 °F 92.3 °F 75.2 °F 74% 29.77 in 1.2 mi NE 8.1 mph - N/A Rain Heavy Rain
8:00 PM 78.8 °F - 75.2 °F 89% 29.77 in 5.0 mi SSW 4.6 mph - N/A   Unknown
8:30 PM 80.6 °F 86.2 °F 75.2 °F 84% 29.77 in 5.0 mi South 4.6 mph - N/A   Unknown
9:00 PM 80.6 °F 86.2 °F 75.2 °F 84% 29.80 in 5.0 mi Calm Calm - N/A   Unknown
9:30 PM 80.6 °F 87.1 °F 77.0 °F 89% 29.80 in 3.1 mi North 6.9 mph - N/A Rain Heavy Rain
10:30 PM 80.6 °F 86.2 °F 75.2 °F 84% 29.80 in 4.3 mi East 2.3 mph - N/A   Unknown
11:00 PM 80.6 °F 86.2 °F 75.2 °F 84% 29.80 in 4.3 mi East 3.5 mph - N/A   Unknown